Regional Weather Roundup
Issued by NWS Jackson, KY

Home | Current Version | Previous Version | Text Only | Print | Product List | Glossary Off
Versions: 1 2 3 4 5 6 7 8 9 10 11 12 13 14 15 16 17 18 19 20 21 22 23 24 25 26 27 28 29 30 31 32 33 34 35 36 37 38 39 40 41 42 43 44 45 46 47 48 49 50

639
ASUS43 KJKL 191310
RWRJKL

EAST KENTUCKY HOURLY WEATHER ROUNDUP
NATIONAL WEATHER SERVICE JACKSON KY
900 AM EDT THU OCT 19 2017

NOTE: "FAIR" INDICATES FEW OR NO CLOUDS BELOW 12,000 FEET WITH
NO SIGNIFICANT WEATHER AND/OR OBSTRUCTIONS TO VISIBILITY.

* THESE REPORTS ARE NOT UNDER NWS QUALITY CONTROL AND MAY NOT
  REPORT WEATHER SUCH AS PRECIPITATION AND FOG.

KYZ079-080-083-085-087-088-110-112-115-119-120-191400
...EASTERN KENTUCKY...

CITY           SKY/WX    TMP DP  RH WIND       PRES   REMARKS
JACKSON        SUNNY     49  45  86 SW3       30.32R
LONDON         SUNNY     45  43  93 CALM      30.33R
SOMERSET*      SUNNY     45  45 100 CALM      30.33R
MONTICELLO*    SUNNY     46  45  96 VRB6      30.34R
WILLIAMSBURG*  CLOUDY    39  39 100 CALM      30.33R VSB<1/4
MIDDLESBORO*   FOG       39  39 100 CALM      30.36R VSB<1/4
HARLAN APT*    CLOUDY    41  41 100 CALM      30.36R VSB<1/4
PIKE CO APT*     N/A     49  44  85 SE3       30.33R
BIG SANDY APT* SUNNY     49  47  90 S3        30.32R
MOREHEAD APT*  SUNNY     52  46  82 SW7       30.30S
$$

KYZ035-036-041-042-044-050-067-078-099-191400
...CENTRAL KENTUCKY...

CITY           SKY/WX    TMP DP  RH WIND       PRES   REMARKS
MT STERLING*   SUNNY     50  45  81 SW6       30.31R
FLEMING/MASON* SUNNY     49  45  84 SW9       30.29R
DANVILLE*      SUNNY     46  45  93 S5        30.32R
LEXINGTON      SUNNY     52  46  80 S7        30.29R
FRANKFORT      SUNNY     50  44  80 S5        30.26R
LOUISVILLE     SUNNY     50  45  83 SE3       30.26R
LEBANON*         N/A     52  46  82 S8        30.30R
GLASGOW*       SUNNY    N/A N/A N/A CALM      30.30R
BOWLING GREEN  SUNNY     46  45  96 CALM      30.30R
$$

KYZ091>093-OHZ055-061-077-WVZ005-015-034-035-042-191400
...SOUTHERN OHIO/WEST VIRGINIA...

CITY           SKY/WX    TMP DP  RH WIND       PRES   REMARKS
COVINGTON      SUNNY     50  46  86 S9        30.23R
COLUMBUS       MOSUNNY   50  45  83 S6        30.22R
DAYTON         MOSUNNY   51  47  86 SW8       30.21R
WILMINGTON     SUNNY     50  46  86 SW9       30.23R
HUNTINGTON     SUNNY     48  44  86 S3        30.28S
CHARLESTON     MOSUNNY   44  43  96 CALM      30.30R
PINEVILLE*     SUNNY     40  39  96 MISG      30.39S
BECKLEY        SUNNY     50  40  68 CALM      30.33R
BLUEFIELD      SUNNY     46  38  73 SW5       30.35R
LOGAN CO APT*    N/A     50  46  87 CALM      30.32R
$$

VAZ002-007-008-TNZ017-027-036-066-071-191400
...SOUTHWEST VIRGINIA/EAST TENNESSEE...

CITY           SKY/WX    TMP DP  RH WIND       PRES   REMARKS
WISE*          SUNNY     48  43  81 CALM      30.35S
JONESVILLE*      N/A     41  41 100 CALM      30.37S
ABINGDON*      SUNNY     49  43  81 E5        30.35R
BRISTOL        FOG       44  43  96 CALM      30.36R VSB 1/2
MORRISTOWN*    SUNNY     48  45  87 CALM      30.34R
SEVIERVILLE*   FOG       45  45 100 CALM      30.35R VSB 0
KNOXVILLE      MOSUNNY   47  47 100 E3        30.33R
LAFOLLETTE*    FOG       48  48 100 CALM      30.37S VSB 0
OAK RIDGE      FOG       46  46 100 CALM      30.36R VSB<1/4
CROSSVILLE     SUNNY     45  42  89 VRB3      30.33R
NASHVILLE      SUNNY     46  44  93 S5        30.30R
$$

...KEY TO REMARKS...
VSB - VISIBILITY IN MILES
WCI - WIND CHILL INDEX
HX  - HEAT INDEX

$$




USA.gov is the U.S. government's official web portal to all federal, state and local government web resources and services.